When you browse on this site, cookies collect data to enhance your experience and personalize the content and advertising you see.
Visit our Privacy Policy to learn more. By continuing to use the site, you agree to this use of cookies and data.
  • In France
  • List of Countries
  • For 7 days
  • Water Temperature
  • Satellite Maps
  • Weather Map
  • Weather Widgets
  • user-avatar
    Login

    Hourly Weather Sharan

    Today, 17 November, Saturday

    Time Temperature Precipitation Wind Pressure Humidity
    00:00 +6°C° 0 mm 2 mps 586 mmHg 44%
    01:00 +6°C° 0 mm 2 mps 586 mmHg 45%
    02:00 +5°C° 0 mm 2 mps 585 mmHg 47%
    03:00 +5°C° 0 mm 2 mps 585 mmHg 48%
    04:00 +5°C° 0 mm 2 mps 585 mmHg 49%
    05:00 +5°C° 0 mm 1 mps 585 mmHg 50%
    06:00 +5°C° 0 mm 1 mps 585 mmHg 49%
    07:00 +6°C° 0 mm 1 mps 585 mmHg 48%
    08:00 +6°C° 0 mm 1 mps 586 mmHg 47%
    09:00 +7°C° 0 mm 2 mps 586 mmHg 42%
    10:00 +9°C° 0 mm 2 mps 587 mmHg 38%
    11:00 +12°C° 0 mm 2 mps 587 mmHg 33%
    12:00 +12°C° 0 mm 3 mps 587 mmHg 32%
    13:00 +13°C° 0 mm 3 mps 587 mmHg 31%
    14:00 +14°C° 0 mm 3 mps 587 mmHg 30%
    15:00 +13°C° 0 mm 4 mps 586 mmHg 31%
    16:00 +13°C° 0 mm 4 mps 586 mmHg 32%
    17:00 +12°C° 0 mm 4 mps 586 mmHg 33%
    18:00 +11°C° 0 mm 3 mps 586 mmHg 37%
    19:00 +10°C° 0 mm 3 mps 585 mmHg 40%
    20:00 +9°C° 0 mm 3 mps 585 mmHg 43%
    21:00 +8°C° 0 mm 3 mps 585 mmHg 47%
    22:00 +7°C° 0 mm 2 mps 585 mmHg 50%
    23:00 +7°C° 0 mm 2 mps 584 mmHg 53%

    Tomorrow, 18 November, Sunday

    Time Temperature Precipitation Wind Pressure Humidity
    00:00 +7°C° 0 mm 1 mps 584 mmHg 56%
    01:00 +7°C° 0 mm 1 mps 584 mmHg 58%
    02:00 +6°C° 0 mm 1 mps 584 mmHg 61%
    03:00 +6°C° 0 mm 1 mps 584 mmHg 62%
    04:00 +5°C° 0 mm 1 mps 583 mmHg 64%
    05:00 +5°C° 0 mm 1 mps 583 mmHg 65%
    06:00 +5°C° 0 mm 1 mps 584 mmHg 63%
    07:00 +6°C° 0 mm 1 mps 584 mmHg 61%
    08:00 +6°C° 0 mm 1 mps 585 mmHg 59%
    09:00 +8°C° 0 mm 1 mps 586 mmHg 53%
    10:00 +10°C° 0 mm 1 mps 587 mmHg 47%
    11:00 +10°C° 0 mm 0 mps 587 mmHg 41%
    12:00 +12°C° 0 mm 1 mps 587 mmHg 39%
    13:00 +13°C° 0 mm 2 mps 587 mmHg 37%
    14:00 +13°C° 0 mm 3 mps 587 mmHg 35%
    15:00 +12°C° 0 mm 3 mps 587 mmHg 36%
    16:00 +12°C° 0 mm 3 mps 587 mmHg 37%
    17:00 +12°C° 0 mm 3 mps 587 mmHg 38%
    18:00 +10°C° 0 mm 3 mps 587 mmHg 43%
    19:00 +9°C° 0 mm 3 mps 587 mmHg 47%
    20:00 +8°C° 0 mm 2 mps 587 mmHg 52%
    21:00 +8°C° 0 mm 2 mps 586 mmHg 55%
    22:00 +7°C° 0 mm 2 mps 586 mmHg 58%
    23:00 +6°C° 0 mm 2 mps 586 mmHg 61%

    Day after tomorrow, 19 November, Monday

    Time Temperature Precipitation Wind Pressure Humidity
    00:00 +6°C° 0 mm 2 mps 586 mmHg 64%
    01:00 +6°C° 0 mm 1 mps 586 mmHg 66%
    02:00 +6°C° 0 mm 1 mps 585 mmHg 68%
    03:00 +5°C° 0 mm 1 mps 585 mmHg 70%
    04:00 +5°C° 0 mm 1 mps 585 mmHg 72%
    05:00 +4°C° 0 mm 1 mps 585 mmHg 74%
    06:00 +5°C° 0 mm 1 mps 585 mmHg 71%
    07:00 +5°C° 0 mm 1 mps 586 mmHg 69%
    08:00 +5°C° 0 mm 1 mps 587 mmHg 66%
    09:00 +7°C° 0 mm 1 mps 587 mmHg 60%
    10:00 +8°C° 0 mm 1 mps 588 mmHg 54%
    11:00 +10°C° 0 mm 1 mps 589 mmHg 48%
    12:00 +10°C° 0 mm 1 mps 589 mmHg 44%
    13:00 +10°C° 0 mm 2 mps 589 mmHg 40%
    14:00 +11°C° 0 mm 3 mps 589 mmHg 36%
    15:00 +11°C° 0 mm 3 mps 589 mmHg 36%
    16:00 +10°C° 0 mm 3 mps 589 mmHg 35%
    17:00 +10°C° 0 mm 3 mps 589 mmHg 35%
    18:00 +9°C° 0 mm 2 mps 589 mmHg 37%
    19:00 +8°C° 0 mm 2 mps 589 mmHg 39%
    20:00 +7°C° 0 mm 2 mps 588 mmHg 42%
    21:00 +7°C° 0 mm 1 mps 588 mmHg 43%
    22:00 +6°C° 0 mm 1 mps 588 mmHg 45%
    23:00 +6°C° 0 mm 1 mps 588 mmHg 47%

    20 November, Tuesday

    Time Temperature Precipitation Wind Pressure Humidity
    00:00 +5°C° 0 mm 1 mps 587 mmHg 49%
    01:00 +5°C° 0 mm 1 mps 587 mmHg 50%
    02:00 +4°C° 0 mm 1 mps 587 mmHg 52%
    03:00 +4°C° 0 mm 1 mps 586 mmHg 53%
    04:00 +3°C° 0 mm 1 mps 586 mmHg 55%
    05:00 +3°C° 0 mm 1 mps 586 mmHg 57%
    06:00 +2°C° 0 mm 0 mps 586 mmHg 55%
    07:00 +3°C° 0 mm 0 mps 587 mmHg 53%
    08:00 +3°C° 0 mm 0 mps 588 mmHg 52%
    09:00 +5°C° 0 mm 0 mps 588 mmHg 45%
    10:00 +8°C° 0 mm 1 mps 589 mmHg 38%
    11:00 +10°C° 0 mm 1 mps 590 mmHg 31%
    12:00 +11°C° 0 mm 1 mps 590 mmHg 28%
    13:00 +12°C° 0 mm 2 mps 590 mmHg 25%
    14:00 +11°C° 0 mm 3 mps 589 mmHg 21%
    15:00 +11°C° 0 mm 3 mps 589 mmHg 22%
    16:00 +10°C° 0 mm 2 mps 588 mmHg 23%
    17:00 +10°C° 0 mm 2 mps 588 mmHg 24%
    18:00 +9°C° 0 mm 2 mps 588 mmHg 27%
    19:00 +8°C° 0 mm 2 mps 588 mmHg 30%
    20:00 +6°C° 0 mm 2 mps 588 mmHg 33%
    21:00 +7°C° 0 mm 1 mps 587 mmHg 35%
    22:00 +6°C° 0 mm 1 mps 587 mmHg 38%
    23:00 +6°C° 0 mm 1 mps 587 mmHg 41%

    21 November, Wednesday

    Time Temperature Precipitation Wind Pressure Humidity
    00:00 +5°C° 0 mm 1 mps 587 mmHg 43%
    01:00 +5°C° 0 mm 1 mps 586 mmHg 46%
    02:00 +4°C° 0 mm 1 mps 586 mmHg 49%
    03:00 +4°C° 0 mm 1 mps 585 mmHg 50%
    04:00 +4°C° 0 mm 1 mps 585 mmHg 52%
    05:00 +3°C° 0 mm 1 mps 585 mmHg 54%
    06:00 +4°C° 0 mm 1 mps 585 mmHg 51%
    07:00 +4°C° 0 mm 1 mps 586 mmHg 49%
    08:00 +5°C° 0 mm 1 mps 586 mmHg 46%
    09:00 +7°C° 0 mm 1 mps 587 mmHg 39%
    10:00 +9°C° 0 mm 1 mps 588 mmHg 32%
    11:00 +10°C° 0 mm 2 mps 589 mmHg 25%
    12:00 +10°C° 0 mm 2 mps 589 mmHg 25%
    13:00 +11°C° 0 mm 3 mps 589 mmHg 25%
    14:00 +12°C° 0 mm 4 mps 589 mmHg 26%
    15:00 +11°C° 0.1 mm 4 mps 588 mmHg 34%
    16:00 +11°C° 0.1 mm 3 mps 588 mmHg 41%
    17:00 +10°C° 0.1 mm 3 mps 588 mmHg 49%
    18:00 +9°C° 0.1 mm 2 mps 588 mmHg 54%
    19:00 +9°C° 0.1 mm 2 mps 588 mmHg 58%
    20:00 +9°C° 0.1 mm 1 mps 588 mmHg 62%
    21:00 +8°C° 0.2 mm 2 mps 588 mmHg 63%
    22:00 +8°C° 0.2 mm 2 mps 588 mmHg 64%
    23:00 +7°C° 0.2 mm 2 mps 588 mmHg 64%

    22 November, Thursday

    Time Temperature Precipitation Wind Pressure Humidity
    00:00 +7°C° 0.1 mm 2 mps 587 mmHg 65%
    01:00 +7°C° 0.1 mm 2 mps 587 mmHg 66%
    02:00 +7°C° 0.1 mm 2 mps 587 mmHg 66%
    03:00 +7°C° 0.4 mm 2 mps 586 mmHg 68%
    04:00 +6°C° 0.4 mm 2 mps 586 mmHg 69%
    05:00 +6°C° 0.4 mm 2 mps 586 mmHg 70%
    06:00 +5°C° 0.8 mm 3 mps 586 mmHg 72%
    07:00 +5°C° 0.8 mm 3 mps 587 mmHg 73%
    08:00 +5°C° 0.8 mm 4 mps 587 mmHg 75%
    09:00 +5°C° 0.7 mm 4 mps 587 mmHg 75%
    10:00 +6°C° 0.7 mm 5 mps 588 mmHg 75%
    11:00 +6°C° 0.7 mm 5 mps 588 mmHg 75%
    12:00 +7°C° 0.2 mm 5 mps 588 mmHg 72%
    13:00 +7°C° 0.2 mm 5 mps 587 mmHg 68%
    14:00 +8°C° 0.2 mm 5 mps 587 mmHg 65%
    15:00 +8°C° 0.1 mm 4 mps 587 mmHg 64%
    16:00 +8°C° 0.1 mm 4 mps 587 mmHg 63%
    17:00 +7°C° 0.1 mm 4 mps 587 mmHg 62%
    18:00 +8°C° 0 mm 3 mps 587 mmHg 66%
    19:00 +7°C° 0 mm 3 mps 588 mmHg 69%
    20:00 +6°C° 0 mm 2 mps 588 mmHg 72%
    21:00 +5°C° 0 mm 2 mps 588 mmHg 75%
    22:00 +6°C° 0 mm 1 mps 588 mmHg 77%
    23:00 +5°C° 0 mm 1 mps 588 mmHg 79%
    Show more